Location: Cheching
(60.0667°N, 164.2167°W)
Time: 13:45:27
(UTC+00:00)

NOAA 15 - Pass Details

Date: 01 February 2021
Orbit: 798 x 812 km, 98.7° (Epoch: 05 March)

Event Time Altitude Azimuth Distance (km) Brightness Sun altitude
Rises 18:08:39 0° 19° (NNE) 3,349 7.8 -7.6°
Reaches altitude 10° 18:11:10 10° 28° (NNE) 2,414 7.2 -7.3°
Maximum altitude 18:16:08 38° 96° (E) 1,228 6.3 -6.7°
Drops below altitude 10° 18:21:04 10° 164° (SSE) 2,400 7.7 -6.1°
Sets 18:23:34 0° 172° (S) 3,327 8.3 -5.9°
